Weather History for Stockton, CA

Change the Weather History Date:

Friday, July 26, 2013

  Actual Average Record
Temperature  
Mean Temperature 80 °F -  
Max Temperature 96 °F 94 °F 109 °F (1975)
Min Temperature 63 °F 60 °F 52 °F (1955)
Degree Days  
Heating Degree Days 0 0  
Month to date heating degree days 0 0  
Since 1 June heating degree days 0 7  
Since 1 July heating degree days 0 0  
Cooling Degree Days 15 12  
Month to date cooling degree days 345 304  
Year to date cooling degree days 807 653  
Since 1 June cooling degree days 626 534  
Growing Degree Days 30 (Base 50)    
Moisture  
Dew Point 52 °F    
Average Humidity 45    
Maximum Humidity 67    
Minimum Humidity 23    
Precipitation  
Precipitation 0.00 in 0.00 in 0.00 in (2014)
Month to date precipitation 0.00 0.00  
Year to date precipitation 2.88 9.03  
Since 1 July precipitation 0.00 0.00  
Snow  
Snow 0.00 in - - ()
Month to date snowfall 0.0  
Since 1 June snowfall 0.0  
Since 1 July snowfall 0.0  
Snow Depth -    
Sea Level Pressure  
Sea Level Pressure 29.97 in    
Wind  
Wind Speed 6 mph (WNW)    
Max Wind Speed 17 mph    
Max Gust Speed 22 mph    
Visibility 10 miles    
Events      
T = Trace of Precipitation, MM = Missing Value Source: NWS Daily Summary

Daily Weather History Graph

Daily Weather History Graph

Search for Another Location

Airport:

Trip Planner

Search our weather history database for the weather conditions in past years. The results will help you decide how hot, cold, wet, or windy it might be!

Date:

Astronomy

Jul. 26, 2013 Rise Set
Actual Time 6:03 AM PDT 8:18 PM PDT
Civil Twilight 5:33 AM PDT 8:48 PM PDT
Nautical Twilight 4:57 AM PDT 9:24 PM PDT
Astronomical Twilight 4:17 AM PDT 10:04 PM PDT
Moon 10:42 PM PDT (7/26) 10:39 AM PDT (7/26)
Length of Visible Light 15h 14m
Length of Day
14h 15m
Waning Gibbous, 79% of the Moon is Illuminated
Jul 26
Waning Gibbous
Jul 29
Last Quarter
Aug 6
New
Aug 14
First Quarter
Aug 20
Full

Hourly Weather History & Observations

Time (PDT) Temp. Heat Index Dew Point Humidity Pressure Visibility Wind Dir Wind Speed Gust Speed Precip Events Conditions
12:55 AM 73.0 °F - 46.0 °F 38% 29.95 in 10.0 mi NW 3.5 mph - N/A   Clear
1:55 AM 72.0 °F - 48.9 °F 44% 29.95 in 10.0 mi NW 4.6 mph - N/A   Clear
2:55 AM 69.1 °F - 48.9 °F 49% 29.95 in 10.0 mi North 6.9 mph - N/A   Clear
3:55 AM 66.9 °F - 52.0 °F 59% 29.96 in 10.0 mi North 4.6 mph - N/A   Clear
4:55 AM 66.0 °F - 51.1 °F 59% 29.96 in 10.0 mi North 4.6 mph - N/A   Clear
5:55 AM 64.0 °F - 51.1 °F 63% 29.98 in 10.0 mi Calm Calm - N/A   Clear
6:55 AM 64.0 °F - 53.1 °F 67% 30.00 in 10.0 mi Calm Calm - N/A   Clear
7:55 AM 69.1 °F - 55.0 °F 61% 30.01 in 10.0 mi NW 5.8 mph - N/A   Clear
8:55 AM 72.0 °F - 54.0 °F 53% 30.03 in 10.0 mi NW 4.6 mph - N/A   Clear
9:55 AM 75.9 °F - 54.0 °F 46% 30.03 in 10.0 mi NW 6.9 mph - N/A   Clear
10:55 AM 80.1 °F - 52.0 °F 38% 30.03 in 10.0 mi WNW 4.6 mph - N/A   Clear
11:55 AM 84.0 °F - 51.1 °F 32% 30.02 in 10.0 mi West 5.8 mph - N/A   Clear
12:55 PM 88.0 °F 85.9 °F 54.0 °F 31% 30.00 in 10.0 mi West 10.4 mph - N/A   Clear
1:55 PM 91.0 °F 88.7 °F 54.0 °F 28% 29.98 in 10.0 mi WNW 11.5 mph - N/A   Clear
2:55 PM 95.0 °F 92.7 °F 54.0 °F 25% 29.96 in 10.0 mi West 13.8 mph - N/A   Clear
3:55 PM 95.0 °F - 52.0 °F 23% 29.94 in 10.0 mi WNW 11.5 mph - N/A   Clear
4:55 PM 96.1 °F 93.8 °F 54.0 °F 24% 29.93 in 10.0 mi West 10.4 mph - N/A   Clear
5:55 PM 95.0 °F 93.4 °F 55.9 °F 27% 29.93 in 10.0 mi West 11.5 mph - N/A   Clear
6:55 PM 91.9 °F - 51.1 °F 25% 29.92 in 10.0 mi West 15.0 mph - N/A   Clear
7:55 PM 88.0 °F - 52.0 °F 29% 29.93 in 10.0 mi WNW 12.7 mph - N/A   Clear
8:55 PM 82.0 °F 81.3 °F 54.0 °F 38% 29.94 in 10.0 mi WNW 10.4 mph - N/A   Clear
9:55 PM 78.1 °F - 54.0 °F 43% 29.96 in 10.0 mi WNW 6.9 mph - N/A   Clear
10:55 PM 75.9 °F - 52.0 °F 43% 29.96 in 10.0 mi WNW 6.9 mph - N/A   Clear
11:55 PM 73.9 °F - 52.0 °F 46% 29.96 in 10.0 mi NW 8.1 mph - N/A   Clear